QPF
0.00 0.00 0.00 0.00 0.00 0.00 0.00 0.00 0.00 0.00 0.00 0.00 0.00 0.00 0.00 0.00 0.00 0.00 0.00 0.00 0.00 0.00 0.00 0.00 0.00 0.00 0.00 0.00 0.00 0.00 0.00 0.00 0.00 0.00 0.00 0.00 0.00 0.00 0.00 0.00 0.00 0.00 0.00
0.00 0.00 0.00 0.00 0.00 0.00 0.00 0.00 0.00 0.00 0.00 0.00 0.00 0.00 0.00 0.00 0.00 0.00 0.00 0.00 0.00 0.00 0.00 0.00 0.00 0.00 0.00 0.00 0.00 0.00 0.00 0.00 0.00 0.00 0.00 0.00 0.00 0.00 0.00 0.00 0.00 0.00 0.00
0.00 0.00 0.00 0.00 0.00 0.00 0.00 0.00 0.00 0.00 0.00 0.00 0.00 0.00 0.00 0.00 0.00 0.00 0.00 0.00 0.00 0.00 0.00 0.00 0.00 0.00 0.00 0.00 0.00 0.00 0.00 0.00 0.00 0.00 0.00 0.00 0.00 0.00 0.00 0.00 0.00 0.00 0.00
0.00 0.00 0.00 0.00 0.00 0.00 0.00 0.00 0.00 0.00 0.00 0.00 0.00 0.00 0.00 0.00 0.00 0.00 0.00 0.00 0.00 0.00 0.00 0.00 0.00 0.00 0.00 0.00 0.00 0.00 0.00 0.00 0.00 0.00 0.00 0.00 0.00 0.00 0.01 0.01 0.01 0.01 0.00
0.00 0.00 0.00 0.00 0.00 0.00 0.00 0.00 0.00 0.00 0.00 0.00 0.00 0.00 0.00 0.00 0.00 0.00 0.00 0.00 0.00 0.00 0.00 0.00 0.00 0.00 0.00 0.00 0.00 0.00 0.00 0.00 0.00 0.00 0.00 0.00 0.00 0.00 0.01 0.02 0.03 0.03 0.01
0.00 0.00 0.00 0.00 0.00 0.00 0.00 0.00 0.00 0.00 0.00 0.00 0.00 0.00 0.00 0.00 0.00 0.00 0.00 0.00 0.00 0.00 0.00 0.00 0.00 0.00 0.00 0.00 0.00 0.00 0.00 0.00 0.00 0.00 0.00 0.00 0.00 0.00 0.02 0.05 0.06 0.05 0.04
0.00 0.00 0.00 0.00 0.00 0.00 0.00 0.00 0.00 0.00 0.00 0.00 0.00 0.00 0.00 0.00 0.00 0.00 0.00 0.00 0.00 0.00 0.00 0.00 0.00 0.00 0.00 0.00 0.00 0.00 0.00 0.00 0.00 0.00 0.00 0.00 0.00 0.00 0.02 0.06 0.08 0.08 0.06
0.00 0.00 0.00 0.00 0.00 0.00 0.00 0.00 0.00 0.00 0.00 0.00 0.00 0.00 0.00 0.00 0.00 0.00 0.00 0.00 0.00 0.00 0.00 0.00 0.00 0.00 0.00 0.00 0.00 0.00 0.00 0.00 0.00 0.00 0.00 0.00 0.00 0.00 0.01 0.05 0.07 0.07 0.07
0.00 0.00 0.00 0.00 0.00 0.00 0.00 0.00 0.00 0.00 0.00 0.00 0.00 0.00 0.00 0.00 0.00 0.00 0.00 0.00 0.00 0.00 0.00 0.00 0.00 0.00 0.00 0.00 0.00 0.00 0.00 0.00 0.00 0.00 0.00 0.00 0.00 0.00 0.01 0.05 0.07 0.08 0.08
0.00 0.00 0.00 0.00 0.00 0.00 0.00 0.00 0.00 0.00 0.00 0.00 0.00 0.00 0.00 0.00 0.00 0.00 0.00 0.00 0.00 0.00 0.00 0.00 0.00 0.00 0.00 0.00 0.00 0.00 0.00 0.00 0.00 0.00 0.00 0.00 0.00 0.00 0.02 0.05 0.08 0.10 0.09
0.00 0.00 0.00 0.00 0.00 0.00 0.00 0.00 0.00 0.00 0.00 0.00 0.00 0.00 0.00 0.00 0.00 0.00 0.00 0.00 0.00 0.00 0.01 0.01 0.00 0.00 0.00 0.01 0.01 0.01 0.01 0.00 0.00 0.00 0.00 0.00 0.00 0.01 0.04 0.07 0.09 0.10 0.10
0.00 0.00 0.00 0.00 0.00 0.00 0.00 0.00 0.00 0.00 0.00 0.00 0.00 0.00 0.00 0.00 0.00 0.00 0.00 0.00 0.00 0.00 0.01 0.01 0.01 0.01 0.01 0.01 0.01 0.01 0.00 0.00 0.00 0.00 0.00 0.00 0.01 0.02 0.05 0.07 0.08 0.11 0.12
0.00 0.00 0.00 0.00 0.00 0.00 0.00 0.00 0.00 0.00 0.00 0.00 0.00 0.00 0.00 0.00 0.00 0.00 0.00 0.00 0.00 0.00 0.01 0.01 0.01 0.01 0.01 0.01 0.00 0.00 0.00 0.00 0.00 0.01 0.01 0.00 0.03 0.07 0.11 0.11 0.10 0.10 0.10
0.00 0.00 0.00 0.00 0.00 0.00 0.01 0.01 0.00 0.00 0.00 0.00 0.00 0.00 0.00 0.00 0.00 0.00 0.00 0.00 0.00 0.00 0.00 0.01 0.01 0.01 0.01 0.01 0.01 0.00 0.01 0.02 0.01 0.01 0.01 0.01 0.03 0.07 0.13 0.14 0.12 0.12 0.10
0.00 0.00 0.01 0.01 0.01 0.02 0.02 0.02 0.01 0.01 0.00 0.00 0.01 0.01 0.01 0.00 0.00 0.00 0.00 0.00 0.00 0.00 0.01 0.01 0.02 0.02 0.02 0.01 0.01 0.01 0.01 0.02 0.01 0.02 0.02 0.01 0.03 0.06 0.10 0.14 0.14 0.14 0.14
0.00 0.01 0.02 0.03 0.04 0.05 0.05 0.05 0.05 0.04 0.03 0.03 0.02 0.02 0.02 0.01 0.01 0.01 0.02 0.02 0.02 0.02 0.03 0.04 0.05 0.05 0.04 0.04 0.03 0.04 0.03 0.02 0.03 0.03 0.03 0.03 0.04 0.04 0.07 0.12 0.14 0.16 0.16
0.00 0.01 0.04 0.06 0.07 0.09 0.11 0.13 0.17 0.18 0.16 0.11 0.08 0.07 0.06 0.05 0.04 0.04 0.04 0.05 0.05 0.06 0.07 0.08 0.08 0.08 0.08 0.07 0.07 0.08 0.07 0.05 0.05 0.04 0.05 0.05 0.06 0.05 0.06 0.10 0.14 0.16 0.17
0.01 0.01 0.05 0.07 0.10 0.16 0.22 0.33 0.40 0.35 0.24 0.16 0.14 0.13 0.12 0.11 0.10 0.10 0.09 0.09 0.14 0.16 0.14 0.14 0.13 0.12 0.11 0.11 0.10 0.09 0.07 0.06 0.05 0.05 0.06 0.08 0.09 0.08 0.07 0.09 0.12 0.14 0.17
0.02 0.03 0.05 0.08 0.12 0.18 0.26 0.39 0.40 0.31 0.26 0.21 0.18 0.15 0.14 0.15 0.18 0.20 0.17 0.17 0.24 0.24 0.20 0.22 0.19 0.18 0.15 0.14 0.13 0.09 0.07 0.05 0.05 0.05 0.04 0.06 0.07 0.07 0.06 0.05 0.06 0.09 0.12
0.02 0.03 0.07 0.09 0.10 0.15 0.23 0.29 0.30 0.26 0.25 0.24 0.20 0.17 0.16 0.18 0.22 0.25 0.21 0.21 0.30 0.29 0.25 0.30 0.31 0.26 0.19 0.18 0.17 0.09 0.07 0.06 0.05 0.04 0.04 0.05 0.05 0.04 0.04 0.04 0.05 0.05 0.07
0.03 0.03 0.04 0.05 0.07 0.13 0.16 0.18 0.21 0.17 0.16 0.18 0.19 0.19 0.17 0.19 0.23 0.27 0.23 0.22 0.27 0.27 0.25 0.32 0.35 0.29 0.22 0.28 0.25 0.12 0.07 0.07 0.05 0.04 0.04 0.04 0.04 0.04 0.04 0.04 0.05 0.05 0.04
0.02 0.02 0.02 0.03 0.04 0.07 0.10 0.11 0.11 0.10 0.09 0.11 0.14 0.14 0.15 0.17 0.21 0.24 0.22 0.21 0.25 0.26 0.23 0.26 0.32 0.28 0.22 0.30 0.31 0.23 0.11 0.06 0.05 0.04 0.03 0.03 0.03 0.05 0.05 0.05 0.06 0.07 0.08
0.01 0.01 0.01 0.01 0.03 0.04 0.05 0.05 0.05 0.05 0.04 0.06 0.09 0.09 0.11 0.13 0.15 0.17 0.15 0.17 0.19 0.23 0.19 0.22 0.29 0.28 0.23 0.24 0.27 0.28 0.17 0.08 0.06 0.04 0.03 0.02 0.03 0.04 0.06 0.07 0.07 0.09 0.10
0.01 0.01 0.01 0.01 0.01 0.02 0.03 0.03 0.03 0.03 0.02 0.03 0.04 0.04 0.04 0.05 0.07 0.09 0.11 0.13 0.14 0.16 0.16 0.19 0.28 0.29 0.27 0.21 0.21 0.22 0.20 0.14 0.10 0.06 0.04 0.04 0.04 0.04 0.05 0.06 0.06 0.08 0.09
0.00 0.00 0.00 0.01 0.01 0.01 0.01 0.02 0.01 0.01 0.01 0.01 0.01 0.01 0.02 0.02 0.03 0.05 0.08 0.10 0.11 0.13 0.13 0.14 0.16 0.18 0.18 0.17 0.15 0.15 0.15 0.13 0.10 0.07 0.04 0.03 0.04 0.03 0.04 0.05 0.06 0.08 0.08
0.00 0.00 0.00 0.00 0.00 0.00 0.00 0.00 0.00 0.00 0.00 0.00 0.00 0.00 0.00 0.01 0.01 0.02 0.03 0.04 0.05 0.06 0.06 0.06 0.09 0.10 0.11 0.11 0.12 0.12 0.11 0.10 0.09 0.10 0.08 0.06 0.05 0.05 0.05 0.06 0.08 0.09 0.08
MSLP
1011.05 1010.77 1010.74 1010.95 1011.31 1011.74 1012.14 1012.45 1012.63 1012.70 1012.70 1012.70 1012.75 1012.89 1013.12 1013.42 1013.75 1014.04 1014.28 1014.42 1014.49 1014.51 1014.50 1014.51 1014.57 1014.66 1014.80 1014.96 1015.11 1015.24 1015.34 1015.41 1015.46 1015.52 1015.59 1015.68 1015.79 1015.93 1016.06 1016.18 1016.29 1016.38 1016.45
1010.66 1010.53 1010.63 1010.95 1011.40 1011.88 1012.31 1012.62 1012.80 1012.86 1012.86 1012.86 1012.93 1013.09 1013.35 1013.66 1013.99 1014.29 1014.51 1014.64 1014.70 1014.72 1014.73 1014.75 1014.83 1014.94 1015.08 1015.23 1015.36 1015.46 1015.53 1015.58 1015.62 1015.67 1015.74 1015.84 1015.96 1016.09 1016.22 1016.32 1016.40 1016.47 1016.53
1010.30 1010.30 1010.52 1010.93 1011.45 1011.98 1012.44 1012.77 1012.96 1013.03 1013.05 1013.08 1013.17 1013.34 1013.60 1013.91 1014.22 1014.48 1014.67 1014.78 1014.82 1014.83 1014.85 1014.90 1015.00 1015.13 1015.28 1015.42 1015.54 1015.62 1015.66 1015.69 1015.73 1015.78 1015.86 1015.98 1016.10 1016.23 1016.35 1016.43 1016.50 1016.55 1016.60
1010.02 1010.13 1010.44 1010.92 1011.48 1012.05 1012.53 1012.87 1013.08 1013.18 1013.23 1013.29 1013.40 1013.59 1013.85 1014.14 1014.41 1014.62 1014.76 1014.83 1014.85 1014.86 1014.89 1014.97 1015.08 1015.24 1015.40 1015.54 1015.64 1015.70 1015.74 1015.76 1015.79 1015.86 1015.95 1016.08 1016.22 1016.34 1016.45 1016.52 1016.57 1016.62 1016.67
1009.87 1010.04 1010.40 1010.91 1011.50 1012.07 1012.55 1012.91 1013.14 1013.27 1013.35 1013.45 1013.60 1013.81 1014.06 1014.32 1014.55 1014.71 1014.81 1014.84 1014.84 1014.85 1014.89 1014.98 1015.12 1015.29 1015.46 1015.60 1015.69 1015.74 1015.77 1015.79 1015.83 1015.91 1016.02 1016.16 1016.29 1016.41 1016.50 1016.56 1016.60 1016.64 1016.71
1009.87 1010.07 1010.44 1010.94 1011.50 1012.05 1012.52 1012.87 1013.11 1013.26 1013.39 1013.53 1013.71 1013.94 1014.20 1014.44 1014.64 1014.77 1014.82 1014.83 1014.81 1014.82 1014.87 1014.98 1015.14 1015.32 1015.49 1015.62 1015.71 1015.75 1015.77 1015.79 1015.84 1015.93 1016.05 1016.19 1016.32 1016.43 1016.50 1016.53 1016.55 1016.59 1016.67
1010.01 1010.20 1010.54 1011.00 1011.51 1012.01 1012.43 1012.75 1012.99 1013.17 1013.33 1013.51 1013.74 1014.00 1014.26 1014.51 1014.69 1014.80 1014.83 1014.82 1014.81 1014.82 1014.88 1015.01 1015.17 1015.35 1015.51 1015.63 1015.70 1015.73 1015.74 1015.76 1015.81 1015.90 1016.02 1016.15 1016.27 1016.35 1016.39 1016.40 1016.40 1016.43 1016.51
1010.26 1010.42 1010.71 1011.11 1011.54 1011.96 1012.32 1012.60 1012.82 1013.00 1013.18 1013.40 1013.67 1013.96 1014.26 1014.51 1014.70 1014.81 1014.84 1014.84 1014.83 1014.85 1014.92 1015.04 1015.20 1015.37 1015.51 1015.61 1015.66 1015.67 1015.67 1015.68 1015.73 1015.81 1015.92 1016.04 1016.13 1016.17 1016.17 1016.15 1016.12 1016.12 1016.20
1010.56 1010.69 1010.93 1011.26 1011.61 1011.95 1012.23 1012.46 1012.64 1012.81 1013.00 1013.25 1013.54 1013.87 1014.19 1014.47 1014.67 1014.79 1014.84 1014.84 1014.84 1014.87 1014.94 1015.06 1015.21 1015.36 1015.48 1015.55 1015.57 1015.56 1015.54 1015.54 1015.57 1015.64 1015.73 1015.82 1015.87 1015.88 1015.84 1015.77 1015.71 1015.69 1015.76
1010.83 1010.95 1011.16 1011.44 1011.73 1011.99 1012.20 1012.37 1012.51 1012.65 1012.84 1013.09 1013.39 1013.73 1014.07 1014.37 1014.59 1014.73 1014.79 1014.81 1014.82 1014.85 1014.93 1015.04 1015.17 1015.29 1015.38 1015.42 1015.42 1015.39 1015.35 1015.33 1015.34 1015.39 1015.45 1015.50 1015.52 1015.49 1015.41 1015.31 1015.21 1015.18 1015.23
1011.03 1011.17 1011.38 1011.63 1011.88 1012.09 1012.25 1012.36 1012.45 1012.56 1012.72 1012.96 1013.25 1013.58 1013.92 1014.21 1014.44 1014.58 1014.66 1014.69 1014.71 1014.75 1014.82 1014.92 1015.03 1015.13 1015.20 1015.22 1015.20 1015.15 1015.09 1015.05 1015.04 1015.06 1015.09 1015.11 1015.09 1015.03 1014.92 1014.79 1014.68 1014.63 1014.66
1011.11 1011.30 1011.54 1011.80 1012.03 1012.22 1012.34 1012.42 1012.48 1012.55 1012.68 1012.87 1013.13 1013.42 1013.72 1013.99 1014.20 1014.34 1014.42 1014.46 1014.48 1014.53 1014.59 1014.69 1014.79 1014.88 1014.93 1014.94 1014.90 1014.84 1014.77 1014.71 1014.68 1014.67 1014.67 1014.66 1014.62 1014.54 1014.42 1014.28 1014.16 1014.10 1014.13
1011.06 1011.31 1011.60 1011.89 1012.15 1012.34 1012.46 1012.53 1012.56 1012.60 1012.68 1012.82 1013.01 1013.25 1013.49 1013.71 1013.88 1014.00 1014.06 1014.10 1014.13 1014.18 1014.25 1014.34 1014.45 1014.53 1014.59 1014.59 1014.56 1014.49 1014.41 1014.33 1014.28 1014.24 1014.22 1014.19 1014.13 1014.04 1013.92 1013.79 1013.69 1013.63 1013.66
1010.88 1011.20 1011.54 1011.88 1012.18 1012.40 1012.55 1012.62 1012.65 1012.66 1012.70 1012.77 1012.89 1013.04 1013.20 1013.35 1013.47 1013.54 1013.59 1013.62 1013.66 1013.71 1013.80 1013.90 1014.02 1014.12 1014.18 1014.20 1014.18 1014.12 1014.04 1013.95 1013.88 1013.82 1013.76 1013.71 1013.64 1013.55 1013.45 1013.34 1013.25 1013.22 1013.25
1010.62 1010.98 1011.36 1011.75 1012.09 1012.36 1012.54 1012.65 1012.68 1012.68 1012.68 1012.69 1012.72 1012.78 1012.85 1012.92 1012.97 1013.01 1013.03 1013.05 1013.10 1013.17 1013.27 1013.40 1013.53 1013.66 1013.75 1013.79 1013.79 1013.74 1013.67 1013.58 1013.48 1013.40 1013.32 1013.24 1013.16 1013.07 1012.98 1012.90 1012.84 1012.82 1012.86
1010.33 1010.69 1011.09 1011.49 1011.87 1012.19 1012.42 1012.56 1012.62 1012.62 1012.59 1012.54 1012.49 1012.46 1012.44 1012.42 1012.41 1012.40 1012.40 1012.43 1012.48 1012.57 1012.70 1012.85 1013.02 1013.18 1013.30 1013.38 1013.40 1013.38 1013.31 1013.22 1013.11 1012.99 1012.88 1012.78 1012.68 1012.58 1012.50 1012.43 1012.39 1012.39 1012.44
1010.07 1010.39 1010.76 1011.16 1011.55 1011.90 1012.18 1012.37 1012.46 1012.47 1012.41 1012.32 1012.20 1012.08 1011.97 1011.88 1011.81 1011.76 1011.75 1011.78 1011.84 1011.96 1012.11 1012.30 1012.49 1012.68 1012.85 1012.96 1013.02 1013.02 1012.97 1012.87 1012.75 1012.61 1012.46 1012.32 1012.19 1012.07 1011.97 1011.90 1011.86 1011.87 1011.92
1009.90 1010.13 1010.44 1010.80 1011.19 1011.56 1011.87 1012.10 1012.22 1012.24 1012.18 1012.04 1011.87 1011.68 1011.49 1011.33 1011.21 1011.13 1011.10 1011.13 1011.21 1011.34 1011.52 1011.73 1011.95 1012.17 1012.37 1012.52 1012.62 1012.65 1012.62 1012.54 1012.41 1012.24 1012.06 1011.87 1011.69 1011.52 1011.39 1011.29 1011.24 1011.23 1011.28
1009.84 1009.96 1010.19 1010.49 1010.85 1011.22 1011.55 1011.80 1011.95 1011.99 1011.92 1011.75 1011.53 1011.27 1011.03 1010.81 1010.64 1010.53 1010.49 1010.51 1010.60 1010.74 1010.93 1011.15 1011.39 1011.63 1011.85 1012.04 1012.18 1012.25 1012.26 1012.19 1012.07 1011.89 1011.67 1011.43 1011.19 1010.97 1010.78 1010.63 1010.53 1010.50 1010.52
1009.89 1009.91 1010.04 1010.28 1010.59 1010.94 1011.28 1011.55 1011.72 1011.77 1011.69 1011.50 1011.23 1010.93 1010.63 1010.36 1010.14 1010.00 1009.94 1009.94 1010.02 1010.15 1010.33 1010.55 1010.79 1011.04 1011.28 1011.50 1011.69 1011.81 1011.86 1011.83 1011.73 1011.55 1011.31 1011.03 1010.74 1010.45 1010.19 1009.97 1009.82 1009.73 1009.72
1010.03 1009.96 1010.01 1010.18 1010.45 1010.78 1011.11 1011.39 1011.57 1011.62 1011.54 1011.33 1011.03 1010.68 1010.33 1010.01 1009.75 1009.57 1009.47 1009.44 1009.49 1009.59 1009.73 1009.92 1010.14 1010.38 1010.64 1010.89 1011.11 1011.29 1011.40 1011.43 1011.37 1011.22 1010.98 1010.68 1010.35 1010.00 1009.67 1009.39 1009.16 1009.02 1008.97
1010.22 1010.09 1010.08 1010.20 1010.43 1010.73 1011.05 1011.33 1011.52 1011.58 1011.49 1011.27 1010.94 1010.56 1010.16 1009.80 1009.49 1009.25 1009.10 1009.03 1009.01 1009.05 1009.14 1009.28 1009.45 1009.67 1009.92 1010.19 1010.45 1010.69 1010.87 1010.97 1010.98 1010.88 1010.68 1010.39 1010.04 1009.66 1009.28 1008.94 1008.66 1008.47 1008.37
1010.40 1010.25 1010.21 1010.29 1010.49 1010.77 1011.08 1011.36 1011.56 1011.63 1011.55 1011.32 1010.98 1010.57 1010.14 1009.73 1009.37 1009.08 1008.86 1008.71 1008.62 1008.57 1008.58 1008.63 1008.74 1008.90 1009.12 1009.39 1009.68 1009.97 1010.23 1010.42 1010.51 1010.49 1010.36 1010.13 1009.81 1009.44 1009.05 1008.68 1008.36 1008.13 1008.00
1010.54 1010.39 1010.33 1010.40 1010.58 1010.85 1011.15 1011.44 1011.65 1011.73 1011.67 1011.45 1011.11 1010.69 1010.24 1009.79 1009.38 1009.02 1008.73 1008.49 1008.30 1008.15 1008.05 1008.00 1008.01 1008.10 1008.26 1008.50 1008.80 1009.13 1009.45 1009.73 1009.93 1010.02 1010.00 1009.85 1009.61 1009.30 1008.95 1008.59 1008.28 1008.04 1007.89
1010.62 1010.48 1010.42 1010.47 1010.64 1010.90 1011.21 1011.51 1011.74 1011.84 1011.80 1011.61 1011.29 1010.87 1010.41 1009.94 1009.48 1009.07 1008.70 1008.36 1008.06 1007.80 1007.57 1007.39 1007.29 1007.27 1007.36 1007.55 1007.82 1008.17 1008.54 1008.90 1009.20 1009.41 1009.52 1009.51 1009.39 1009.18 1008.92 1008.64 1008.37 1008.15 1008.01
1010.66 1010.52 1010.45 1010.50 1010.66 1010.91 1011.22 1011.52 1011.77 1011.90 1011.89 1011.73 1011.44 1011.05 1010.59 1010.11 1009.63 1009.16 1008.72 1008.30 1007.89 1007.50 1007.14 1006.83 1006.59 1006.45 1006.43 1006.54 1006.77 1007.10 1007.49 1007.91 1008.31 1008.65 1008.90 1009.04 1009.09 1009.04 1008.91 1008.75 1008.57 1008.41 1008.30
Thickness
5823 5822 5818 5813 5809 5805 5802 5799 5797 5794 5792 5790 5787 5785 5783 5782 5780 5779 5777 5776 5774 5773 5771 5770 5768 5766 5765 5763 5762 5760 5758 5756 5755 5753 5752 5751 5750 5749 5747 5746 5745 5744 5743
5830 5824 5819 5814 5810 5806 5802 5799 5796 5794 5791 5789 5787 5785 5783 5781 5780 5778 5776 5775 5773 5771 5770 5768 5767 5765 5763 5762 5760 5759 5757 5755 5754 5753 5752 5750 5749 5748 5747 5746 5744 5743 5743
5831 5825 5820 5815 5811 5806 5802 5798 5796 5793 5791 5788 5786 5784 5783 5781 5779 5777 5776 5774 5772 5771 5769 5767 5766 5764 5762 5761 5759 5757 5756 5754 5753 5752 5751 5750 5749 5748 5747 5745 5744 5743 5742
5830 5825 5821 5816 5811 5807 5802 5799 5796 5793 5790 5788 5786 5784 5782 5780 5778 5777 5775 5773 5772 5770 5768 5767 5765 5764 5762 5760 5758 5757 5755 5754 5752 5751 5750 5749 5748 5747 5746 5745 5744 5743 5742
5828 5824 5820 5816 5811 5807 5803 5799 5796 5793 5790 5788 5786 5783 5781 5779 5778 5776 5774 5773 5771 5770 5768 5767 5765 5763 5762 5760 5758 5756 5754 5753 5752 5751 5749 5748 5747 5746 5745 5744 5743 5742 5741
5826 5823 5819 5815 5810 5806 5802 5799 5796 5793 5790 5787 5785 5782 5780 5778 5776 5775 5773 5771 5770 5769 5768 5767 5765 5763 5761 5760 5758 5756 5755 5753 5752 5751 5749 5748 5747 5746 5745 5744 5743 5742 5741
5825 5821 5818 5813 5809 5805 5802 5798 5795 5792 5789 5786 5784 5781 5779 5777 5775 5773 5772 5770 5769 5768 5767 5765 5764 5763 5761 5760 5758 5757 5755 5754 5752 5751 5750 5749 5747 5747 5746 5745 5744 5743 5742
5824 5819 5815 5812 5808 5804 5801 5797 5794 5791 5788 5785 5782 5780 5778 5776 5774 5772 5771 5769 5768 5766 5765 5764 5763 5762 5761 5760 5758 5757 5755 5754 5753 5752 5750 5749 5749 5748 5747 5747 5746 5745 5743
5821 5817 5813 5810 5806 5802 5799 5796 5792 5789 5787 5784 5782 5779 5777 5775 5773 5772 5770 5769 5767 5766 5764 5763 5762 5761 5760 5759 5758 5757 5755 5754 5753 5752 5751 5750 5749 5749 5748 5748 5747 5746 5745
5817 5814 5811 5808 5804 5801 5797 5794 5791 5788 5786 5783 5781 5778 5776 5774 5773 5771 5770 5768 5767 5765 5764 5763 5762 5761 5760 5759 5758 5757 5756 5755 5754 5752 5751 5751 5750 5750 5749 5749 5749 5748 5747
5813 5811 5808 5806 5802 5799 5796 5793 5790 5787 5784 5782 5780 5777 5775 5773 5772 5770 5769 5767 5766 5764 5763 5762 5761 5760 5759 5758 5758 5757 5756 5755 5754 5753 5753 5752 5752 5751 5751 5751 5751 5750 5749
5811 5810 5808 5804 5800 5797 5794 5791 5788 5785 5783 5780 5778 5776 5774 5772 5770 5768 5766 5765 5764 5763 5762 5761 5760 5759 5758 5757 5757 5756 5755 5754 5754 5754 5754 5754 5753 5752 5752 5752 5752 5751 5750
5811 5808 5805 5802 5798 5794 5791 5788 5785 5783 5780 5778 5776 5773 5771 5769 5767 5766 5764 5763 5762 5761 5760 5760 5759 5758 5757 5756 5755 5754 5754 5753 5753 5753 5753 5754 5753 5753 5753 5752 5752 5752 5751
5807 5804 5802 5798 5794 5791 5787 5785 5782 5780 5778 5776 5774 5771 5768 5766 5764 5763 5762 5760 5759 5758 5757 5757 5756 5756 5756 5755 5754 5753 5752 5752 5751 5751 5751 5752 5752 5752 5752 5752 5751 5751 5751
5803 5800 5798 5794 5791 5787 5783 5780 5777 5775 5773 5771 5770 5767 5765 5763 5761 5760 5759 5757 5756 5755 5754 5754 5753 5753 5753 5753 5752 5751 5750 5750 5750 5750 5750 5750 5750 5751 5751 5751 5751 5750 5750
5800 5797 5794 5790 5787 5782 5778 5774 5771 5769 5767 5765 5764 5763 5761 5760 5759 5757 5755 5754 5753 5752 5751 5751 5751 5750 5750 5749 5749 5748 5748 5748 5748 5748 5748 5748 5748 5748 5749 5749 5749 5749 5748
5798 5795 5790 5786 5781 5776 5772 5768 5765 5763 5761 5760 5758 5758 5756 5756 5755 5754 5753 5751 5751 5749 5748 5747 5747 5746 5745 5744 5744 5745 5745 5745 5746 5746 5746 5745 5745 5745 5745 5746 5746 5747 5747
5794 5790 5786 5782 5776 5771 5767 5764 5760 5758 5756 5755 5753 5752 5751 5751 5750 5749 5749 5749 5748 5746 5745 5743 5742 5740 5739 5738 5739 5741 5742 5743 5743 5744 5743 5743 5742 5742 5742 5742 5744 5744 5744
5790 5785 5780 5777 5772 5767 5763 5759 5755 5752 5751 5750 5749 5747 5746 5746 5746 5744 5744 5745 5744 5742 5741 5739 5738 5736 5734 5733 5733 5735 5737 5738 5740 5740 5740 5741 5740 5740 5739 5739 5740 5742 5742
5784 5780 5775 5771 5768 5763 5758 5754 5750 5747 5747 5746 5744 5743 5742 5741 5741 5740 5740 5741 5739 5737 5736 5734 5732 5731 5730 5728 5727 5729 5732 5734 5735 5735 5736 5737 5737 5737 5737 5737 5737 5739 5739
5776 5772 5768 5763 5759 5756 5750 5745 5742 5740 5741 5740 5739 5738 5737 5736 5736 5734 5735 5735 5734 5732 5732 5731 5727 5725 5725 5723 5718 5719 5725 5728 5730 5731 5732 5732 5733 5734 5734 5734 5734 5735 5736
5767 5764 5761 5756 5753 5750 5746 5743 5740 5737 5736 5735 5733 5732 5731 5731 5730 5729 5728 5727 5727 5726 5726 5725 5723 5720 5720 5719 5713 5709 5710 5717 5723 5727 5727 5727 5729 5730 5730 5730 5731 5730 5731
5760 5758 5756 5751 5748 5745 5741 5737 5733 5729 5727 5725 5723 5723 5723 5722 5722 5721 5721 5720 5720 5719 5720 5720 5718 5715 5713 5714 5712 5707 5702 5705 5712 5718 5720 5722 5723 5723 5725 5725 5726 5726 5726
5755 5753 5749 5745 5742 5738 5734 5729 5725 5720 5716 5715 5714 5713 5713 5713 5713 5712 5712 5712 5712 5712 5712 5713 5714 5712 5710 5709 5709 5708 5707 5707 5703 5705 5710 5714 5716 5717 5718 5719 5720 5721 5721
5749 5746 5743 5739 5736 5732 5728 5724 5719 5714 5711 5708 5706 5705 5704 5704 5703 5703 5703 5704 5704 5704 5705 5707 5708 5708 5707 5707 5706 5705 5703 5702 5701 5698 5700 5704 5707 5710 5711 5712 5713 5714 5714
5743 5740 5737 5733 5729 5726 5722 5718 5713 5708 5704 5700 5698 5695 5694 5693 5693 5694 5694 5695 5696 5697 5699 5700 5702 5702 5703 5703 5703 5702 5700 5698 5698 5696 5695 5696 5697 5700 5702 5704 5705 5706 5707